[[{"header":{"parameterUnit":"m.s-1","parameterCategory":2,"la1":30.2991,"la2":30.254,"lo1":-89.0895,"lo2":-89.0444,"dy":0.0017,"dx":0.0017,"nx":28,"ny":28,"refTime":"2025-07-21T09:00:00:Z","depth":"0","parameterNumber":2,"parameterNumberName":"U-component_of_CURRENTS"},"data":[0,0,0,0,0,0,0,0,0,0,0,0,0,0,0,0,0,0,0,0,0,0,0,0,0,0,0,0,0,0,0,0,0,0,0,0,0,0,0,0,0,0,0,0,0,0,0,0,0,0,0,0,0,0,0,0,0,0,0.3024,0.3024,0,0.3042,0.3042,0.3042,0.3008,0.3008,0.3007,0.3006,0.3055,0.3057,0.3059,0,0,0,0,0,0,0,0,0,0,0,0,0,0.3009,0.3009,0.3024,0.3024,0.3025,0.3042,0.3042,0.3042,0.3008,0.3008,0.3007,0.3006,0.3054,0.3057,0.3059,0,0,0,0,0,0,0,0,0,0,0,0,0,0.3016,0.3009,0.3024,0.3013,0.3012,0.3042,0.3042,0.3042,0.3009,0.3007,0.3006,0.3005,0.3054,0.3057,0.306,0.3102,0,0,0.3069,0.307,0,0,0,0,0,0,0,0,0.3016,0.3016,0.3014,0.3014,0.3013,0.3025,0.3055,0.3065,0.3009,0.3006,0.3006,0.3005,0.3051,0.3054,0.3055,0.3104,0.3106,0.3069,0.3071,0.3072,0.3073,0,0,0,0,0,0,0,0.3015,0.3016,0.3027,0.3015,0.3014,0.3024,0.3023,0.3056,0.3033,0.3006,0.3005,0.3013,0.305,0.3052,0.3056,0.3107,0.3069,0.3072,0.3074,0.3075,0.3248,0.3251,0,0,0,0,0,0,0.3019,0.3015,0.3027,0.3028,0.3016,0.3025,0.3024,0.3019,0.3032,0.3033,0.3014,0.3012,0.3047,0.3052,0.3058,0.3137,0.3072,0.3075,0.3077,0.3246,0.3249,0.3252,0,0,0,0,0,0,0.3018,0.3019,0.3026,0.3026,0.3028,0.3027,0.3022,0.302,0.3023,0.3038,0.3039,0.3019,0.3046,0.3053,0.3099,0.3137,0.3077,0.3079,0.3242,0.3247,0.325,0.3278,0,0,0,0,0,0,0.3018,0.3019,0.3021,0.3026,0.3028,0.3051,0.3023,0.3022,0.3031,0.3028,0.3043,0.3046,0.3046,0.3094,0.3102,0.3141,0.3082,0.3239,0.3244,0.3249,0.3274,0.3283,0.329,0,0,0,0,0,0.3017,0.3024,0.302,0.3022,0.3028,0.3053,0.3055,0.3048,0.3033,0.3044,0.3056,0.3045,0.3133,0.3099,0.3107,0.3147,0.3236,0.3243,0.3249,0.327,0.3281,0.329,0,0,0,0,0,0,0.302,0.3022,0.3018,0.3025,0.3042,0.3048,0.3059,0.3056,0.3073,0.307,0.3073,0.3079,0.3144,0.3147,0.3109,0.3218,0.3187,0.3195,0.3201,0.3211,0.3219,0.3246,0.3084,0,0,0,0,0,0.3023,0.3026,0.3037,0.3046,0.3054,0.3058,0.3068,0.3067,0.3082,0.3086,0.3101,0.313,0.3179,0.3191,0.3236,0.3282,0.3302,0.332,0.3328,0.3334,0.3366,0.3442,0.3459,0.3272,0.3272,0.3272,0,0,0.3027,0.3031,0.3032,0.3047,0.3055,0.3079,0.306,0.3081,0.3108,0.3094,0.3137,0.3168,0.3204,0.3265,0.3293,0.3264,0.3391,0.3342,0.3347,0.3376,0.345,0.3468,0.3484,0.3277,0.3276,0.3275,0,0,0.3043,0.3041,0.305,0.3066,0.3088,0.31,0.3109,0.3126,0.314,0.3189,0.3199,0.3255,0.3304,0.3344,0.3369,0.3456,0.3447,0.3465,0.3509,0.3582,0.3597,0.3611,0.3619,0.3634,0.3451,0.3451,0.3451,0,0.305,0.3052,0.3061,0.308,0.3097,0.3111,0.3134,0.3162,0.3196,0.3228,0.3211,0.3334,0.3353,0.3448,0.3473,0.3476,0.3492,0.3456,0.3591,0.3605,0.3619,0.3625,0.3641,0.3453,0.3453,0.3453,0.3453,0,0.3071,0.3076,0.3086,0.311,0.3142,0.3161,0.3204,0.3242,0.3263,0.3296,0.3397,0.3437,0.3508,0.3524,0.3521,0.3636,0.3604,0.3601,0.3556,0.364,0.364,0.3656,0.3456,0.3456,0.3455,0.3454,0,0,0.3058,0.3091,0.309,0.3099,0.3152,0.3173,0.3247,0.3313,0.3366,0.3423,0.3505,0.3593,0.3618,0.3654,0.3666,0.3721,0.3809,0.3698,0.37,0.3689,0.3927,0.3716,0.3713,0.3822,0.3826,0.383,0.387,0,0.3061,0.3084,0.3114,0.3149,0.3161,0.3216,0.3289,0.3363,0.3425,0.3514,0.359,0.3679,0.3665,0.3704,0.3765,0.3822,0.3861,0.3796,0.3864,0.3866,0.3656,0.3729,0.3559,0.3566,0.3886,0.3888,0.389,0,0.3053,0.3069,0.3095,0.3155,0.3171,0.3212,0.3319,0.3391,0.3533,0.3588,0.3694,0.3757,0.3876,0.3844,0.3977,0.3933,0.3941,0.3963,0.3965,0.378,0.3687,0.3547,0.3583,0.3528,0.3915,0.3913,0.3911,0,0.3005,0.3048,0.3063,0.3079,0.3166,0.3207,0.3273,0.3409,0.349,0.3644,0.3716,0.3858,0.3923,0.4009,0.4044,0.4028,0.416,0.4138,0.3952,0.3935,0.3812,0.3776,0.3795,0.4233,0.4233,0.4233,0.4233,0,0.2975,0.2981,0.3034,0.3039,0.3092,0.3176,0.327,0.3359,0.3517,0.3611,0.3748,0.3833,0.3972,0.4052,0.4088,0.4053,0.4193,0.3981,0.395,0.3808,0.3773,0.3734,0.3735,0.4234,0.4234,0.4234,0.4234,0,0.2914,0.2941,0.296,0.3037,0.3063,0.3107,0.3253,0.3335,0.3478,0.3607,0.3665,0.3839,0.3913,0.4004,0.4116,0.4059,0.396,0.4029,0.3811,0.375,0.3465,0.3472,0.3297,0.3218,0.3833,0.3829,0.3825,0,0.2881,0.2881,0.2941,0.2962,0.2991,0.307,0.3145,0.3299,0.3389,0.3587,0.3645,0.3761,0.3793,0.3858,0.3821,0.3813,0.3778,0.3616,0.3551,0.3434,0.3425,0.3291,0.3232,0.3401,0.3394,0.3388,0.3383,0,0.2832,0.2851,0.2874,0.2913,0.2962,0.3026,0.3129,0.3187,0.3364,0.3435,0.3521,0.3561,0.3595,0.3497,0.3458,0.3442,0.3425,0.3484,0.3475,0.3173,0.293,0.2841,0.3355,0.3331,0.3336,0.334,0.3343,0.3345,0.28,0.2798,0.2829,0.2853,0.2908,0.2946,0.2948,0.3046,0.3109,0.316,0.3301,0.3263,0.3268,0.317,0.3131,0.2954,0.2993,0.2868,0.2913,0.2806,0.2645,0.2981,0.284,0.2842,0.2844,0.2846,0.2848,0,0.2743,0.2743,0.2771,0.2777,0.2778,0.2843,0.2905,0.2867,0.2828,0.2909,0.2908,0.2862,0.2743,0.2747,0.2597,0.2456,0.2371,0.2405,0.2278,0.2274,0.2689,0.2586,0.2247,0.2247,0.2247,0.2247,0.2247,0.2247,0.2717,0.2691,0.2684,0.2628,0.2631,0.2568,0.2554,0.25,0.2511,0.2413,0.2365,0.2414,0.2501,0.2427,0.226,0.2192,0.209,0.1893,0.1977,0.2384,0.2434,0.2481,0.2386,0.2011,0.2011,0.1439,0.1436,0.1433]},{"header":{"parameterUnit":"m.s-1","parameterCategory":2,"la1":30.2991,"la2":30.254,"lo1":-89.0895,"lo2":-89.0444,"dy":0.0017,"dx":0.0017,"nx":28,"ny":28,"refTime":"2025-07-21T09:00:00:Z","depth":"0","parameterNumber":3,"parameterNumberName":"V-component_of_CURRENTS"},"data":[0,0,0,0,0,0,0,0,0,0,0,0,0,0,0,0,0,0,0,0,0,0,0,0,0,0,0,0,0,0,0,0,0,0,0,0,0,0,0,0,0,0,0,0,0,0,0,0,0,0,0,0,0,0,0,0,0,0,0.0368,0.0368,0,0.0372,0.0372,0.0372,0.036,0.036,0.036,0.0359,0.0367,0.0368,0.0368,0,0,0,0,0,0,0,0,0,0,0,0,0,0.0339,0.034,0.0368,0.0368,0.0368,0.0372,0.0372,0.0372,0.0361,0.036,0.036,0.0359,0.0367,0.0368,0.0368,0,0,0,0,0,0,0,0,0,0,0,0,0,0.0348,0.034,0.0368,0.0363,0.0363,0.0372,0.0372,0.0372,0.0361,0.036,0.036,0.0359,0.0367,0.0368,0.0369,0.0383,0,0,0.0371,0.0371,0,0,0,0,0,0,0,0,0.0347,0.0349,0.0364,0.0364,0.0363,0.0365,0.0364,0.0376,0.0361,0.0361,0.0359,0.0359,0.0368,0.0368,0.037,0.0384,0.0384,0.0371,0.0371,0.0372,0.0372,0,0,0,0,0,0,0,0.0347,0.0349,0.0369,0.0364,0.0363,0.0356,0.0357,0.0366,0.0367,0.0361,0.036,0.0361,0.0367,0.0369,0.037,0.0384,0.0371,0.0372,0.0372,0.0372,0.0422,0.0423,0,0,0,0,0,0,0.0348,0.0348,0.0369,0.0369,0.0354,0.0357,0.0358,0.0365,0.0367,0.0367,0.0362,0.0361,0.0368,0.0369,0.037,0.0408,0.0372,0.0373,0.0373,0.0421,0.0422,0.0423,0,0,0,0,0,0,0.0348,0.035,0.0369,0.0359,0.036,0.0359,0.0366,0.0365,0.0369,0.0367,0.0367,0.0366,0.0368,0.0369,0.0385,0.0407,0.0373,0.0374,0.042,0.0422,0.0423,0.047,0,0,0,0,0,0,0.0347,0.035,0.0357,0.0359,0.0361,0.0383,0.0366,0.0366,0.037,0.0369,0.0371,0.0371,0.0367,0.0384,0.0386,0.0408,0.0374,0.0419,0.0421,0.0422,0.0468,0.0473,0.0478,0,0,0,0,0,0.0346,0.0361,0.0357,0.036,0.037,0.0383,0.0384,0.038,0.0371,0.038,0.038,0.0371,0.0396,0.0386,0.0388,0.041,0.0418,0.042,0.0422,0.0465,0.0472,0.0477,0,0,0,0,0,0,0.0351,0.0362,0.0357,0.0374,0.038,0.0382,0.0389,0.0385,0.0392,0.0391,0.0384,0.0385,0.0408,0.0402,0.0391,0.0428,0.0405,0.0408,0.0437,0.0443,0.0448,0.0473,0.0375,0,0,0,0,0,0.0355,0.037,0.0375,0.0388,0.0392,0.039,0.0394,0.0395,0.04,0.0401,0.0403,0.0406,0.0418,0.0424,0.0432,0.0453,0.0448,0.0468,0.0473,0.0477,0.0498,0.0506,0.0514,0.043,0.043,0.0429,0,0,0.036,0.0368,0.0375,0.039,0.0392,0.0415,0.0392,0.0406,0.0429,0.0403,0.0432,0.0426,0.0427,0.0453,0.0462,0.045,0.0495,0.048,0.0483,0.0503,0.0509,0.0518,0.0525,0.0431,0.0431,0.043,0,0,0.0384,0.0384,0.0407,0.0418,0.043,0.0433,0.0439,0.0446,0.0454,0.0479,0.0467,0.0476,0.0489,0.0498,0.0503,0.0542,0.0522,0.0537,0.0584,0.0591,0.0598,0.0605,0.0593,0.0598,0.0539,0.0539,0.0539,0,0.0388,0.0421,0.0415,0.0442,0.046,0.0445,0.0479,0.0487,0.05,0.0518,0.0496,0.0529,0.0518,0.0561,0.0567,0.0556,0.0548,0.056,0.0598,0.0605,0.061,0.0597,0.0602,0.0541,0.0541,0.0541,0.054,0,0.0436,0.046,0.0474,0.0507,0.0523,0.0549,0.0561,0.058,0.0581,0.0589,0.0627,0.0614,0.0637,0.0626,0.0606,0.0646,0.0621,0.0603,0.0584,0.0622,0.0605,0.0609,0.0545,0.0544,0.0543,0.0542,0,0,0.0455,0.05,0.0506,0.0539,0.0563,0.0588,0.0626,0.0666,0.071,0.0705,0.0763,0.0755,0.0743,0.0749,0.0725,0.072,0.0732,0.0679,0.0678,0.0669,0.0736,0.0676,0.0674,0.0718,0.0719,0.072,0.0702,0,0.0496,0.0563,0.0574,0.0642,0.068,0.0688,0.0735,0.0767,0.0784,0.0835,0.0821,0.0864,0.0793,0.0812,0.0795,0.0762,0.0749,0.0739,0.07,0.0699,0.0643,0.068,0.0693,0.0675,0.0706,0.0707,0.0707,0,0.0545,0.0586,0.0657,0.0731,0.075,0.0788,0.0868,0.0912,0.0963,0.098,0.1001,0.0992,0.1001,0.0934,0.089,0.0885,0.0818,0.0774,0.0772,0.0709,0.0648,0.0645,0.0681,0.0628,0.0714,0.0713,0.0713,0,0.0577,0.0649,0.0711,0.0734,0.0809,0.0851,0.0898,0.0956,0.1026,0.1081,0.1135,0.1122,0.1141,0.1067,0.0959,0.0933,0.0901,0.0855,0.0736,0.073,0.0733,0.0725,0.0719,0.0825,0.0825,0.0825,0.0825,0,0.0625,0.0677,0.0734,0.0772,0.087,0.0903,0.1015,0.1057,0.1149,0.1253,0.1219,0.129,0.1175,0.1138,0.1017,0.0894,0.0945,0.0761,0.0732,0.0746,0.0739,0.0684,0.0644,0.0824,0.0825,0.0825,0.0825,0,0.0656,0.0687,0.077,0.0854,0.0889,0.0963,0.11,0.1194,0.1255,0.1393,0.1424,0.1431,0.1371,0.1239,0.112,0.0978,0.0822,0.0801,0.0811,0.0783,0.0598,0.056,0.051,0.0493,0.0673,0.0672,0.0671,0,0.0681,0.0724,0.0828,0.0892,0.0934,0.1047,0.1145,0.1241,0.1355,0.1486,0.1572,0.1548,0.154,0.1329,0.1094,0.0879,0.08,0.073,0.0675,0.0606,0.0544,0.0513,0.0502,0.0693,0.0692,0.0691,0.0691,0,0.0734,0.0764,0.0835,0.096,0.1063,0.1194,0.1337,0.1444,0.1578,0.1677,0.1787,0.1783,0.1578,0.1365,0.1052,0.0894,0.0699,0.0703,0.0653,0.058,0.0531,0.0496,0.067,0.0684,0.0685,0.0685,0.0685,0.0686,0.0774,0.0829,0.092,0.1043,0.1163,0.1326,0.1444,0.1598,0.1766,0.1923,0.1921,0.1924,0.1635,0.1207,0.0988,0.063,0.0632,0.0522,0.0487,0.0467,0.044,0.058,0.0541,0.0541,0.0541,0.0541,0.0541,0,0.0825,0.0891,0.1004,0.1149,0.1281,0.1342,0.1566,0.1687,0.1867,0.1994,0.2055,0.1929,0.1567,0.1211,0.0722,0.0479,0.0409,0.0365,0.0359,0.0362,0.0514,0.0505,0.0433,0.0433,0.0433,0.0433,0.0433,0.0433,0.0855,0.0955,0.1008,0.1214,0.1323,0.151,0.1635,0.1802,0.1936,0.2067,0.2088,0.2098,0.1872,0.1,0.0486,0.0366,0.0264,0.0193,0.0154,0.0284,0.0298,0.0311,0.0295,0.0179,0.0179,0.0047,0.0045,0.0044]}],[{"header":{"parameterUnit":"m.s-1","parameterCategory":2,"la1":30.2991,"la2":30.254,"lo1":-89.0895,"lo2":-89.0444,"dy":0.0017,"dx":0.0017,"nx":28,"ny":28,"refTime":"2025-07-21T09:00:00:Z","depth":"2","parameterNumber":2,"parameterNumberName":"U-component_of_CURRENTS"},"data":[0,0,0,0,0,0,0,0,0,0,0,0,0,0,0,0,0,0,0,0,0,0,0,0,0,0,0,0,0,0,0,0,0,0,0,0,0,0,0,0,0,0,0,0,0,0,0,0,0,0,0,0,0,0,0,0,0,0,0.2698,0.2699,0,0.2703,0.2703,0.2702,0.2682,0.2681,0.2681,0.2681,0.2708,0.2709,0.271,0,0,0,0,0,0,0,0,0,0,0,0,0,0.2694,0.2694,0.2698,0.2699,0.2699,0.2703,0.2703,0.2702,0.2682,0.2681,0.2681,0.2681,0.2708,0.2709,0.271,0,0,0,0,0,0,0,0,0,0,0,0,0,0.2693,0.2694,0.2698,0.2692,0.2692,0.2703,0.2703,0.2702,0.2682,0.2681,0.2681,0.2681,0.2707,0.2709,0.271,0.2727,0,0,0.2715,0.2715,0,0,0,0,0,0,0,0,0.2693,0.2693,0.2693,0.2693,0.2692,0.2695,0.2711,0.2713,0.2682,0.2681,0.2681,0.268,0.2709,0.271,0.2706,0.2728,0.2729,0.2715,0.2716,0.2716,0.2717,0,0,0,0,0,0,0,0.2693,0.2693,0.2696,0.2693,0.2693,0.2697,0.2696,0.2711,0.2695,0.2681,0.2681,0.2688,0.2708,0.2704,0.2706,0.273,0.2715,0.2716,0.2717,0.2717,0.2809,0.281,0,0,0,0,0,0,0.27,0.2693,0.2696,0.2697,0.2696,0.2698,0.2696,0.2691,0.2694,0.2695,0.2688,0.2687,0.2702,0.2705,0.2707,0.2769,0.2716,0.2718,0.2718,0.2807,0.2809,0.2811,0,0,0,0,0,0,0.2699,0.27,0.2696,0.2699,0.2699,0.2698,0.2693,0.2692,0.2699,0.2699,0.27,0.2698,0.2702,0.2705,0.2737,0.2768,0.2718,0.272,0.2805,0.2808,0.281,0.2866,0,0,0,0,0,0,0.2699,0.2699,0.2704,0.2699,0.2699,0.2716,0.2694,0.2692,0.2705,0.2703,0.2708,0.2709,0.2702,0.2735,0.2738,0.2769,0.2721,0.2803,0.2806,0.2809,0.2862,0.287,0.2876,0,0,0,0,0,0.2699,0.2705,0.2703,0.2705,0.2703,0.2717,0.2718,0.2714,0.2706,0.2716,0.2721,0.271,0.2756,0.2737,0.2741,0.2773,0.2802,0.2806,0.2809,0.2859,0.2868,0.2876,0,0,0,0,0,0,0.2707,0.2704,0.2702,0.2707,0.2719,0.2715,0.2727,0.2724,0.2735,0.2737,0.2729,0.2732,0.2774,0.2767,0.2747,0.2809,0.2778,0.2782,0.2814,0.2823,0.283,0.2861,0.2722,0,0,0,0,0,0.2712,0.2714,0.2718,0.2726,0.2733,0.2733,0.274,0.274,0.2748,0.2751,0.2757,0.2768,0.279,0.2801,0.2817,0.2849,0.2862,0.2873,0.2881,0.2887,0.2915,0.2976,0.2992,0.2822,0.2822,0.2822,0,0,0.2718,0.2719,0.272,0.2729,0.2735,0.2751,0.2735,0.2754,0.2772,0.2755,0.2785,0.2797,0.2806,0.2844,0.2861,0.2842,0.2934,0.2891,0.2896,0.2922,0.2981,0.2998,0.3013,0.2825,0.2824,0.2824,0,0,0.2734,0.2733,0.2741,0.2751,0.277,0.2775,0.2786,0.2795,0.2804,0.2839,0.2833,0.2873,0.2893,0.2912,0.2922,0.2983,0.2974,0.298,0.3039,0.3097,0.3112,0.3125,0.3128,0.3142,0.2979,0.2979,0.2979,0,0.2745,0.2744,0.275,0.2763,0.2774,0.2789,0.2805,0.2823,0.2844,0.2866,0.2859,0.2928,0.2933,0.2992,0.3013,0.3002,0.3015,0.3001,0.3108,0.3121,0.3134,0.3135,0.3149,0.2982,0.2982,0.2981,0.2981,0,0.2759,0.2764,0.2773,0.279,0.2812,0.2828,0.2855,0.2882,0.2902,0.2926,0.2997,0.3018,0.3064,0.3068,0.3061,0.3151,0.3122,0.3112,0.3086,0.3155,0.315,0.3163,0.2986,0.2985,0.2984,0.2984,0,0,0.2754,0.2776,0.2777,0.2782,0.2822,0.2835,0.2886,0.2932,0.2973,0.302,0.3086,0.3138,0.3169,0.3185,0.3188,0.3239,0.3324,0.322,0.3222,0.3224,0.3422,0.3257,0.3255,0.3336,0.334,0.3342,0.337,0,0.2757,0.2773,0.2793,0.2817,0.2825,0.2863,0.2909,0.2963,0.3018,0.309,0.3149,0.3219,0.3206,0.3245,0.3299,0.3331,0.3369,0.3315,0.3357,0.3357,0.3204,0.327,0.3008,0.2999,0.3383,0.3385,0.3387,0,0.2749,0.2761,0.2779,0.2816,0.2827,0.2859,0.2935,0.2986,0.3099,0.3148,0.3245,0.3297,0.3399,0.3377,0.3478,0.3446,0.345,0.346,0.3461,0.3307,0.3219,0.3,0.3009,0.3409,0.3408,0.3406,0.3404,0,0.2711,0.2743,0.2753,0.2763,0.2821,0.2851,0.2903,0.3007,0.3067,0.321,0.3275,0.3394,0.3459,0.3523,0.3541,0.3531,0.3627,0.3607,0.3455,0.344,0.3226,0.3187,0.3683,0.3683,0.3683,0.3683,0.3683,0,0.2684,0.2688,0.2735,0.2737,0.2773,0.2836,0.291,0.2979,0.3111,0.3185,0.3314,0.3383,0.3507,0.3564,0.3581,0.3546,0.3656,0.3485,0.3454,0.323,0.3193,0.3561,0.3547,0.3684,0.3684,0.3684,0.3684,0,0.2633,0.2658,0.267,0.2729,0.275,0.2786,0.2902,0.2961,0.3092,0.3199,0.3255,0.3404,0.3466,0.3532,0.3614,0.3562,0.3567,0.3517,0.3214,0.3147,0.3332,0.332,0.3378,0.3373,0.3368,0.3365,0.3361,0,0.2604,0.2604,0.2653,0.2667,0.2693,0.2759,0.2807,0.2939,0.3009,0.318,0.3222,0.3334,0.3358,0.3403,0.3355,0.3332,0.3445,0.3058,0.2998,0.3345,0.3311,0.3306,0.33,0.2726,0.2718,0.2711,0.2706,0,0.2557,0.2578,0.2592,0.2618,0.2654,0.2691,0.2772,0.2809,0.2956,0.3037,0.3106,0.3145,0.3169,0.3023,0.2987,0.2944,0.3047,0.2918,0.3398,0.2829,0.2729,0.2695,0.2712,0.2647,0.2653,0.2658,0.2661,0.2663,0.2527,0.2522,0.2543,0.2554,0.2589,0.2589,0.2582,0.2656,0.2709,0.2763,0.2885,0.2838,0.2847,0.2649,0.2542,0.2453,0.267,0.2562,0.2584,0.2612,0.2518,0.2414,0.2253,0.2256,0.2259,0.2262,0.2264,0,0.2472,0.2468,0.2478,0.247,0.245,0.2507,0.2525,0.2481,0.2456,0.2519,0.2538,0.2306,0.2181,0.2187,0.1949,0.1914,0.1922,0.1838,0.1844,0.1903,0.1955,0.1829,0.1381,0.1378,0.1376,0.1373,0,0,0.2445,0.2411,0.2397,0.2319,0.2318,0.2238,0.2209,0.2154,0.2148,0.2062,0.201,0.2137,0.2153,0.1777,0.1694,0.1498,0.1701,0.1432,0.2143,0.2213,0.2263,0.2372,0.2242,0,0,0,0,0]},{"header":{"parameterUnit":"m.s-1","parameterCategory":2,"la1":30.2991,"la2":30.254,"lo1":-89.0895,"lo2":-89.0444,"dy":0.0017,"dx":0.0017,"nx":28,"ny":28,"refTime":"2025-07-21T09:00:00:Z","depth":"2","parameterNumber":3,"parameterNumberName":"V-component_of_CURRENTS"},"data":[0,0,0,0,0,0,0,0,0,0,0,0,0,0,0,0,0,0,0,0,0,0,0,0,0,0,0,0,0,0,0,0,0,0,0,0,0,0,0,0,0,0,0,0,0,0,0,0,0,0,0,0,0,0,0,0,0,0,0.0242,0.0242,0,0.0239,0.0239,0.0239,0.023,0.023,0.023,0.023,0.0226,0.0226,0.0226,0,0,0,0,0,0,0,0,0,0,0,0,0,0.0219,0.022,0.0242,0.0241,0.0241,0.0239,0.0239,0.0239,0.023,0.023,0.023,0.023,0.0226,0.0226,0.0226,0,0,0,0,0,0,0,0,0,0,0,0,0,0.0224,0.022,0.0242,0.0237,0.0237,0.0239,0.0239,0.0239,0.023,0.023,0.023,0.023,0.0226,0.0226,0.0226,0.0231,0,0,0.0226,0.0226,0,0,0,0,0,0,0,0,0.0224,0.0225,0.0238,0.0238,0.0237,0.0235,0.0229,0.0236,0.023,0.0233,0.023,0.023,0.0229,0.0229,0.0228,0.0231,0.023,0.0226,0.0226,0.0226,0.0226,0,0,0,0,0,0,0,0.0223,0.0225,0.024,0.0238,0.0237,0.0228,0.0229,0.023,0.0232,0.0232,0.0232,0.0232,0.0229,0.0228,0.0228,0.023,0.0226,0.0226,0.0226,0.0226,0.0243,0.0243,0,0,0,0,0,0,0.0226,0.0225,0.024,0.024,0.023,0.0229,0.023,0.0236,0.0232,0.0231,0.0232,0.0232,0.0228,0.0228,0.0228,0.0255,0.0226,0.0226,0.0226,0.0242,0.0243,0.0243,0,0,0,0,0,0,0.0225,0.0227,0.024,0.0232,0.0233,0.023,0.0236,0.0236,0.024,0.0232,0.0231,0.0237,0.0228,0.0228,0.0237,0.0254,0.0226,0.0226,0.0242,0.0243,0.0243,0.0296,0,0,0,0,0,0,0.0225,0.0227,0.0234,0.0232,0.0234,0.0251,0.0237,0.0236,0.024,0.0239,0.0236,0.0235,0.0228,0.0237,0.0237,0.0254,0.0226,0.0241,0.0242,0.0243,0.0294,0.0298,0.0302,0,0,0,0,0,0.0224,0.0238,0.0235,0.0236,0.0243,0.0251,0.0252,0.0248,0.024,0.0249,0.0245,0.0235,0.0242,0.0238,0.0238,0.0255,0.0241,0.0242,0.0243,0.0292,0.0297,0.0302,0,0,0,0,0,0,0.0231,0.0239,0.0235,0.025,0.0253,0.025,0.0257,0.0252,0.0256,0.0256,0.0244,0.0244,0.0255,0.0247,0.0242,0.026,0.0238,0.0239,0.0276,0.0281,0.0285,0.0308,0.0226,0,0,0,0,0,0.0236,0.0249,0.0251,0.0262,0.0265,0.0261,0.0264,0.0264,0.0265,0.0266,0.0262,0.0258,0.0259,0.0263,0.026,0.0275,0.0263,0.0283,0.0288,0.0291,0.0309,0.0306,0.0312,0.0246,0.0246,0.0246,0,0,0.0241,0.0247,0.0254,0.0265,0.0265,0.0284,0.0262,0.0274,0.0293,0.0265,0.0288,0.0273,0.0264,0.0279,0.0283,0.0276,0.0299,0.0293,0.0296,0.0312,0.0307,0.0314,0.0319,0.0247,0.0247,0.0247,0,0,0.0263,0.0264,0.0284,0.0292,0.0301,0.0302,0.0308,0.0311,0.0315,0.0333,0.0315,0.0315,0.0317,0.0316,0.0315,0.0342,0.0319,0.0334,0.0382,0.0378,0.0384,0.0389,0.0367,0.037,0.0341,0.0341,0.0341,0,0.0269,0.0298,0.0291,0.0314,0.0328,0.0314,0.0343,0.0347,0.0354,0.0365,0.0348,0.0355,0.0339,0.0364,0.0368,0.0354,0.0341,0.0365,0.0386,0.039,0.0394,0.0371,0.0373,0.0344,0.0343,0.0343,0.0343,0,0.0312,0.0333,0.0346,0.0374,0.0386,0.0408,0.0414,0.0428,0.0426,0.0429,0.0449,0.0428,0.0437,0.0423,0.0405,0.0428,0.0404,0.0388,0.0376,0.0404,0.0377,0.0379,0.0347,0.0347,0.0346,0.0345,0,0,0.0332,0.037,0.0376,0.0404,0.0422,0.0443,0.0471,0.05,0.0534,0.0523,0.0565,0.0545,0.0531,0.0529,0.0503,0.0495,0.0496,0.0459,0.0457,0.0444,0.0478,0.044,0.0437,0.0484,0.0485,0.0486,0.0442,0,0.037,0.0431,0.0437,0.0496,0.0529,0.053,0.0566,0.0587,0.0597,0.0632,0.0608,0.0635,0.0573,0.0587,0.0567,0.0522,0.0505,0.0509,0.0447,0.0445,0.0414,0.044,0.0442,0.0401,0.0443,0.0443,0.0443,0,0.0414,0.0452,0.0516,0.0575,0.059,0.0622,0.0682,0.0717,0.0747,0.0757,0.0766,0.0748,0.0742,0.0688,0.0624,0.0629,0.0562,0.0514,0.0511,0.0464,0.0411,0.0382,0.0402,0.0445,0.0445,0.0445,0.0445,0,0.0447,0.051,0.0566,0.0585,0.0644,0.0678,0.0716,0.0756,0.0813,0.0848,0.0888,0.0859,0.0869,0.0786,0.0672,0.0657,0.0591,0.0558,0.0457,0.0452,0.0438,0.0431,0.0516,0.0516,0.0516,0.0516,0.0517,0,0.0492,0.0538,0.0589,0.0623,0.0707,0.0731,0.0824,0.0854,0.0924,0.1006,0.0964,0.101,0.0897,0.084,0.0716,0.0591,0.0623,0.0477,0.0448,0.0453,0.0448,0.0475,0.0471,0.0515,0.0515,0.0515,0.0516,0,0.0523,0.0551,0.0625,0.0696,0.0726,0.0792,0.0906,0.0982,0.1028,0.1135,0.1159,0.1141,0.1063,0.0923,0.0789,0.0662,0.0537,0.048,0.0481,0.0454,0.0387,0.0386,0.0377,0.0376,0.0374,0.0373,0.0372,0,0.0546,0.0586,0.068,0.0736,0.0773,0.0873,0.0953,0.1031,0.1123,0.1214,0.1277,0.1235,0.1208,0.0983,0.0767,0.0554,0.0523,0.0404,0.0378,0.0405,0.0377,0.0378,0.0379,0.0369,0.0368,0.0367,0.0367,0,0.0595,0.0623,0.0686,0.0799,0.0887,0.0998,0.1118,0.1204,0.1308,0.139,0.1463,0.1444,0.1238,0.102,0.0725,0.0573,0.0438,0.0383,0.0431,0.0402,0.0393,0.0367,0.0369,0.0361,0.0361,0.0362,0.0362,0.0362,0.0632,0.0682,0.0762,0.0872,0.0975,0.1106,0.1208,0.1332,0.1472,0.1594,0.1574,0.1536,0.1296,0.0911,0.0652,0.0384,0.0413,0.0301,0.0305,0.031,0.0315,0.0304,0.0255,0.0255,0.0255,0.0255,0.0255,0,0.0679,0.0737,0.0834,0.0962,0.1076,0.1131,0.1309,0.1408,0.1561,0.1648,0.1696,0.1436,0.1192,0.0907,0.0515,0.0284,0.0269,0.0191,0.0227,0.0235,0.0242,0.0245,0.0166,0.0165,0.0164,0.0163,0,0,0.0704,0.0792,0.0838,0.1016,0.1116,0.1275,0.1377,0.1513,0.1606,0.1675,0.1654,0.161,0.1267,0.0957,0.0641,0.0407,0.0373,0.0351,0.045,0.054,0.0549,0.0332,0.0349,0,0,0,0,0]}],[{"header":{"parameterUnit":"m.s-1","parameterCategory":2,"la1":30.2991,"la2":30.254,"lo1":-89.0895,"lo2":-89.0444,"dy":0.0017,"dx":0.0017,"nx":28,"ny":28,"refTime":"2025-07-21T09:00:00:Z","depth":"4","parameterNumber":2,"parameterNumberName":"U-component_of_CURRENTS"},"data":[0,0,0,0,0,0,0,0,0,0,0,0,0,0,0,0,0,0,0,0,0,0,0,0,0,0,0,0,0,0,0,0,0,0,0,0,0,0,0,0,0,0,0,0,0,0,0,0,0,0,0,0,0,0,0,0,0,0,0.1697,0.1697,0,0.1729,0.1729,0.1729,0.1764,0.1764,0.1765,0.1766,0.1783,0.1782,0.1782,0,0,0,0,0,0,0,0,0,0,0,0,0,0.1664,0.1664,0.1697,0.1697,0.1698,0.1729,0.1729,0.1729,0.1764,0.1764,0.1765,0.1766,0.1783,0.1782,0.1782,0,0,0,0,0,0,0,0,0,0,0,0,0,0.1683,0.1664,0.1697,0.1721,0.1723,0.1729,0.1729,0.1729,0.1763,0.1764,0.1766,0.1767,0.1783,0.1782,0.1782,0.1758,0,0,0.1781,0.1781,0,0,0,0,0,0,0,0,0.1681,0.1683,0.1717,0.1719,0.1722,0.1745,0.1723,0.1739,0.1763,0.1746,0.1766,0.1767,0.177,0.177,0.1771,0.1759,0.176,0.1781,0.1781,0.1781,0.1781,0,0,0,0,0,0,0,0.168,0.1682,0.1707,0.1717,0.1721,0.1729,0.1733,0.1726,0.1749,0.1747,0.175,0.1757,0.1771,0.1771,0.1771,0.176,0.1781,0.1781,0.1781,0.178,0.1831,0.1833,0,0,0,0,0,0,0.168,0.1681,0.1706,0.1708,0.1707,0.1729,0.1733,0.1735,0.1749,0.1754,0.1756,0.1759,0.1771,0.1772,0.1772,0.1836,0.1781,0.178,0.178,0.183,0.1831,0.1833,0,0,0,0,0,0,0.1679,0.1682,0.1705,0.1698,0.1702,0.1729,0.173,0.1735,0.1772,0.1757,0.1761,0.1794,0.1772,0.1773,0.1801,0.1833,0.178,0.178,0.1828,0.183,0.1832,0.1904,0,0,0,0,0,0,0.1678,0.1681,0.1702,0.1697,0.1702,0.1731,0.173,0.1735,0.1774,0.1778,0.1789,0.179,0.1773,0.1802,0.1801,0.1832,0.178,0.1826,0.1829,0.1831,0.19,0.1909,0.1916,0,0,0,0,0,0.1676,0.1693,0.1703,0.1707,0.1723,0.1733,0.1736,0.1757,0.1775,0.1795,0.1808,0.1792,0.1819,0.1803,0.1801,0.1833,0.1824,0.1828,0.1831,0.1896,0.1907,0.1916,0,0,0,0,0,0,0.1692,0.1698,0.1709,0.1728,0.1743,0.174,0.1768,0.1779,0.1804,0.1822,0.1807,0.1808,0.1844,0.183,0.1812,0.1857,0.1821,0.1824,0.1871,0.1881,0.1889,0.1896,0.1779,0,0,0,0,0,0.1704,0.1722,0.1725,0.1748,0.1759,0.1771,0.1787,0.18,0.1813,0.1828,0.1836,0.1846,0.185,0.1861,0.1861,0.1884,0.1882,0.1905,0.1914,0.1921,0.1926,0.1957,0.1969,0.1844,0.1844,0.1844,0,0,0.1719,0.1726,0.1738,0.1754,0.1771,0.1782,0.1785,0.1819,0.1837,0.1823,0.1867,0.1875,0.1863,0.1891,0.1906,0.1888,0.1957,0.1925,0.1931,0.1933,0.1962,0.1974,0.1985,0.1847,0.1846,0.1846,0,0,0.1741,0.1764,0.1782,0.1795,0.1825,0.1824,0.1842,0.1862,0.1886,0.1919,0.1916,0.195,0.1958,0.1959,0.1956,0.201,0.1998,0.2017,0.2066,0.2096,0.2107,0.2116,0.2136,0.2147,0.2023,0.2023,0.2023,0,0.1766,0.1777,0.1792,0.1809,0.1823,0.1845,0.1862,0.1881,0.1912,0.1938,0.1947,0.1989,0.1987,0.201,0.2037,0.2028,0.2044,0.2028,0.2107,0.2116,0.2124,0.2143,0.2153,0.2027,0.2027,0.2026,0.2026,0,0.178,0.1808,0.1823,0.1844,0.1863,0.1886,0.1903,0.194,0.1975,0.1996,0.2054,0.2059,0.2085,0.2094,0.2083,0.2141,0.2133,0.2113,0.2082,0.2141,0.2157,0.2167,0.2033,0.2031,0.203,0.2029,0,0,0.1779,0.1824,0.1833,0.1848,0.1884,0.1891,0.1935,0.1971,0.2009,0.206,0.2107,0.214,0.2169,0.2169,0.2168,0.2201,0.2277,0.2195,0.2195,0.2215,0.2352,0.2172,0.2165,0.228,0.2282,0.2284,0.2342,0,0.1788,0.1823,0.1842,0.1874,0.1887,0.1922,0.1951,0.1997,0.2045,0.21,0.2139,0.2187,0.2187,0.2217,0.2252,0.2273,0.2306,0.2263,0.2292,0.2292,0.2124,0.217,0.229,0.2349,0.2351,0.2353,0.2354,0,0.1779,0.1806,0.1843,0.1882,0.1893,0.1922,0.1978,0.2008,0.2089,0.2139,0.2208,0.224,0.2309,0.2293,0.237,0.235,0.2364,0.2373,0.2375,0.2185,0.2129,0.2276,0.2371,0.237,0.2368,0.2367,0.2366,0,0.1741,0.1795,0.1826,0.1841,0.1894,0.1931,0.1963,0.2037,0.2076,0.218,0.2231,0.2307,0.2357,0.2397,0.2426,0.2419,0.2492,0.2473,0.2319,0.2307,0.2421,0.2411,0.252,0.252,0.252,0.252,0.252,0,0.1707,0.1734,0.1822,0.1835,0.1877,0.1923,0.1977,0.2032,0.2117,0.2165,0.2257,0.2301,0.2393,0.2438,0.2453,0.2408,0.2515,0.2332,0.2309,0.2451,0.2443,0.2428,0.2417,0.2522,0.2522,0.2521,0.2521,0,0.1646,0.1705,0.1745,0.1829,0.186,0.1893,0.198,0.2004,0.2112,0.2179,0.2221,0.2332,0.2388,0.2435,0.2497,0.242,0.2406,0.236,0.2513,0.2498,0.2201,0.2193,0.2202,0.2196,0.2191,0.2186,0.2183,0,0.161,0.1631,0.1737,0.1763,0.1809,0.187,0.1895,0.1996,0.2022,0.2175,0.2184,0.2293,0.2345,0.2284,0.2353,0.2344,0.2311,0.2284,0.2236,0.219,0.2169,0.2169,0.2167,0.2175,0.2174,0.2172,0.2171,0,0.1544,0.1606,0.1642,0.1702,0.1746,0.177,0.1825,0.184,0.1946,0.2069,0.2098,0.212,0.2162,0.2185,0.2177,0.2172,0.2291,0.2231,0.2241,0.2196,0.2158,0.2142,0.2146,0.2154,0.2156,0.2158,0.2159,0,0.1505,0.1516,0.1579,0.161,0.1661,0.1649,0.1692,0.1709,0.1752,0.1916,0.1929,0.2038,0.2152,0.2096,0.2101,0.2064,0.2034,0.1957,0.1981,0.2001,0.1901,0.1822,0.1696,0,0,0,0,0,0.1453,0.1447,0.1471,0.1486,0.1526,0.1558,0.1622,0.1663,0.1784,0.175,0.1832,0.1863,0.1871,0.1928,0.1848,0.2005,0.2039,0.1901,0.1963,0.2057,0.2078,0.1975,0,0,0,0,0,0,0.1414,0.1443,0.1434,0.1374,0.1364,0.1382,0.1427,0.1508,0.1487,0.1631,0.164,0.1746,0.1776,0.1902,0.1817,0.1828,0.1823,0.1968,0.1963,0.2046,0.2064,0.208,0.1982,0,0,0,0,0]},{"header":{"parameterUnit":"m.s-1","parameterCategory":2,"la1":30.2991,"la2":30.254,"lo1":-89.0895,"lo2":-89.0444,"dy":0.0017,"dx":0.0017,"nx":28,"ny":28,"refTime":"2025-07-21T09:00:00:Z","depth":"4","parameterNumber":3,"parameterNumberName":"V-component_of_CURRENTS"},"data":[0,0,0,0,0,0,0,0,0,0,0,0,0,0,0,0,0,0,0,0,0,0,0,0,0,0,0,0,0,0,0,0,0,0,0,0,0,0,0,0,0,0,0,0,0,0,0,0,0,0,0,0,0,0,0,0,0,0,0.0132,0.0132,0,0.0128,0.0128,0.0128,0.0126,0.0126,0.0126,0.0126,0.0118,0.0118,0.0118,0,0,0,0,0,0,0,0,0,0,0,0,0,0.0117,0.0118,0.0132,0.0132,0.0132,0.0128,0.0128,0.0128,0.0126,0.0126,0.0126,0.0126,0.0118,0.0118,0.0118,0,0,0,0,0,0,0,0,0,0,0,0,0,0.012,0.0118,0.0132,0.013,0.013,0.0128,0.0128,0.0128,0.0126,0.0126,0.0126,0.0126,0.0119,0.0118,0.0118,0.0117,0,0,0.0117,0.0117,0,0,0,0,0,0,0,0,0.012,0.012,0.013,0.013,0.013,0.0127,0.012,0.0124,0.0126,0.0127,0.0126,0.0126,0.0121,0.0121,0.012,0.0116,0.0116,0.0117,0.0117,0.0117,0.0117,0,0,0,0,0,0,0,0.012,0.012,0.013,0.013,0.013,0.0123,0.0123,0.0121,0.0124,0.0127,0.0127,0.0127,0.0121,0.012,0.012,0.0116,0.0117,0.0117,0.0117,0.0117,0.012,0.012,0,0,0,0,0,0,0.0121,0.012,0.013,0.013,0.0125,0.0123,0.0124,0.0128,0.0124,0.0124,0.0127,0.0127,0.0121,0.012,0.012,0.0139,0.0117,0.0117,0.0116,0.0119,0.012,0.012,0,0,0,0,0,0,0.0121,0.0122,0.0131,0.0125,0.0125,0.0124,0.0129,0.0128,0.0132,0.0124,0.0123,0.0132,0.0121,0.012,0.0125,0.0137,0.0116,0.0116,0.0119,0.0119,0.012,0.0163,0,0,0,0,0,0,0.0121,0.0122,0.0128,0.0125,0.0126,0.0137,0.0129,0.0128,0.0132,0.0132,0.0128,0.0127,0.0121,0.0125,0.0125,0.0137,0.0116,0.0119,0.0119,0.012,0.0161,0.0165,0.0168,0,0,0,0,0,0.012,0.0131,0.0129,0.013,0.0134,0.0137,0.0137,0.0135,0.0132,0.0138,0.0136,0.0128,0.0127,0.0126,0.0125,0.0137,0.0119,0.0119,0.012,0.016,0.0164,0.0168,0,0,0,0,0,0,0.0127,0.0131,0.0129,0.014,0.0141,0.0137,0.0143,0.0139,0.0142,0.0144,0.0133,0.0132,0.0138,0.013,0.0129,0.0137,0.012,0.0121,0.0152,0.0155,0.0159,0.0168,0.0116,0,0,0,0,0,0.0131,0.0141,0.014,0.0149,0.0151,0.0147,0.0149,0.0149,0.0149,0.015,0.0146,0.0142,0.0139,0.0142,0.0136,0.0146,0.0127,0.0151,0.0154,0.0157,0.0163,0.0143,0.0145,0.0122,0.0122,0.0122,0,0,0.0136,0.014,0.0145,0.0151,0.0151,0.0164,0.0148,0.0157,0.017,0.0149,0.0165,0.0152,0.0142,0.015,0.0153,0.0148,0.0152,0.0158,0.016,0.0165,0.0144,0.0146,0.0148,0.0122,0.0122,0.0122,0,0,0.0153,0.0154,0.0169,0.0174,0.0179,0.0178,0.0183,0.0183,0.0188,0.0199,0.0184,0.0181,0.018,0.0176,0.0174,0.0191,0.0166,0.0186,0.0219,0.02,0.0201,0.0203,0.0178,0.0177,0.0194,0.0194,0.0194,0,0.0159,0.0179,0.0173,0.019,0.02,0.0188,0.0209,0.0211,0.0214,0.0222,0.0211,0.0205,0.0194,0.0205,0.0209,0.02,0.0181,0.0207,0.0204,0.0205,0.0206,0.018,0.0179,0.0196,0.0196,0.0196,0.0196,0,0.0188,0.0205,0.0215,0.0234,0.0242,0.0257,0.026,0.027,0.027,0.0269,0.0277,0.0257,0.0256,0.0248,0.0236,0.0239,0.022,0.0207,0.0197,0.0211,0.0183,0.018,0.0199,0.0199,0.0198,0.0197,0,0,0.0202,0.0231,0.0236,0.0257,0.0269,0.0283,0.0304,0.0322,0.0344,0.0333,0.0353,0.0337,0.0321,0.0316,0.0295,0.0278,0.0261,0.0249,0.0247,0.0228,0.0213,0.0198,0.0193,0.0247,0.0247,0.0247,0.0189,0,0.0229,0.0274,0.0278,0.0322,0.0346,0.0347,0.0372,0.0385,0.0389,0.0403,0.0378,0.0386,0.0349,0.0351,0.0326,0.0277,0.0257,0.0278,0.0198,0.0196,0.0184,0.0191,0.0246,0.0187,0.0187,0.0186,0.0186,0,0.0258,0.0287,0.0335,0.0379,0.039,0.0414,0.0454,0.0477,0.0486,0.0489,0.0482,0.0456,0.0434,0.0398,0.0323,0.0337,0.0281,0.0238,0.0234,0.0205,0.0176,0.0169,0.0181,0.0181,0.0182,0.0182,0.0182,0,0.0279,0.0327,0.0371,0.0386,0.0429,0.0457,0.0483,0.0506,0.0541,0.0546,0.056,0.0519,0.0508,0.0431,0.0334,0.0331,0.024,0.0225,0.0159,0.0157,0.0168,0.0167,0.0175,0.0175,0.0175,0.0175,0.0175,0,0.0306,0.0342,0.0389,0.0415,0.0479,0.0495,0.0559,0.0578,0.0612,0.0655,0.0609,0.0619,0.0516,0.0449,0.0351,0.0244,0.0252,0.0166,0.0144,0.0186,0.0188,0.0165,0.0165,0.0173,0.0173,0.0174,0.0174,0,0.0321,0.0348,0.0406,0.0465,0.0492,0.054,0.0619,0.0664,0.0685,0.0737,0.0744,0.0699,0.0613,0.0494,0.0368,0.028,0.0172,0.0131,0.0183,0.0164,0.0096,0.0099,0.0059,0.0058,0.0057,0.0057,0.0056,0,0.0333,0.0364,0.0446,0.049,0.0522,0.0596,0.0651,0.0701,0.0749,0.0785,0.0807,0.0748,0.0697,0.0504,0.0372,0.0187,0.0158,0.0095,0.0098,0.0103,0.0085,0.0089,0.0093,0.0055,0.0055,0.0054,0.0054,0,0.0356,0.0385,0.0435,0.0525,0.0592,0.0672,0.0749,0.0793,0.0849,0.0866,0.0863,0.0772,0.0672,0.0514,0.0368,0.0233,0.0131,0.0086,0.0087,0.0089,0.0097,0.0082,0.0086,0.0051,0.0052,0.0052,0.0052,0,0.0375,0.041,0.0475,0.0557,0.0641,0.0723,0.0767,0.0822,0.0872,0.0908,0.0903,0.0797,0.0741,0.0539,0.0402,0.0268,0.0235,0.0182,0.0177,0.0178,0.0224,0.0253,0.0239,0,0,0,0,0,0.0392,0.0431,0.0503,0.059,0.0673,0.0728,0.0821,0.0857,0.0909,0.0915,0.0916,0.0823,0.0638,0.0554,0.0419,0.0377,0.0201,0.0211,0.0135,0.0036,0.0039,0.0071,0,0,0,0,0,0,0.04,0.0464,0.0498,0.06,0.0665,0.0761,0.0827,0.0867,0.0869,0.0897,0.0799,0.077,0.0586,0.0711,0.0409,0.037,0.0299,0.013,0.0127,0.0034,0.0037,0.004,0.0073,0,0,0,0,0]}]]